This is the latest recevied weather packets stored in our database for station/object DL5RDP-9. If no packets are shown the sender has not sent any weather packets the latest 10 day(s).
| Time | Temp. | Humidity | Pressure | Rain* | Wind** | Luminosity | Snow |
|---|---|---|---|---|---|---|---|
| 1777562874 | 25.56° C | 28% | 1029.2 hPa | - | - | - | - |
| 1777561074 | 25.56° C | 27% | 1029.2 hPa | - | - | - | - |
| 1777553873 | 25.56° C | 28% | 1029.7 hPa | - | - | - | - |
| 1777552973 | 25.56° C | 27% | 1029.8 hPa | - | - | - | - |
| 1777552073 | 25.56° C | 27% | 1029.8 hPa | - | - | - | - |
| 1777550272 | 25.56° C | 27% | 1030 hPa | - | - | - | - |
| 1777545772 | 25.56° C | 27% | 1030.3 hPa | - | - | - | - |
| 1777544872 | 25° C | 27% | 1030.6 hPa | - | - | - | - |
| 1777543972 | 25° C | 27% | 1030.7 hPa | - | - | - | - |
| 1777541271 | 25° C | 27% | 1030.8 hPa | - | - | - | - |
| 1777539471 | 25° C | 26% | 1030.7 hPa | - | - | - | - |
| 1777537671 | 25° C | 29% | 1030.7 hPa | - | - | - | - |
| 1777536771 | 25° C | 31% | 1030.7 hPa | - | - | - | - |
| 1777534070 | 24.44° C | 28% | 1030.6 hPa | - | - | - | - |
| 1777533170 | 24.44° C | 28% | 1030.6 hPa | - | - | - | - |
| 1777532270 | 24.44° C | 28% | 1030.5 hPa | - | - | - | - |
| 1777531370 | 23.89° C | 28% | 1030.5 hPa | - | - | - | - |
| 1777530469 | 23.89° C | 27% | 1030.6 hPa | - | - | - | - |
| 1777529569 | 23.89° C | 27% | 1030.6 hPa | - | - | - | - |
| 1777528668 | 23.89° C | 26% | 1030.5 hPa | - | - | - | - |
| 1777526868 | 24.44° C | 29% | 1030.4 hPa | - | - | - | - |
| 1777525968 | 24.44° C | 29% | 1030.4 hPa | - | - | - | - |
| 1777525068 | 24.44° C | 29% | 1030.4 hPa | - | - | - | - |
| 1777524168 | 24.44° C | 29% | 1030.2 hPa | - | - | - | - |
| 1777523268 | 24.44° C | 29% | 1030.1 hPa | - | - | - | - |
* Rain since midnight (hover to see other rain measurements)
** Current wind speed in m/s (hover to see current wind gust speed)